User: anonymous   Login
Location: Dover
(39.1580°N, 75.5250°W)
Time: 16:19:49
(UTC-04:00)
Language:

SeaSat 1 - Orbit

View from above orbital plane
View from above orbital plane
View from above satellite
View from above satellite

Ground track
Ground track

The orbit data is extracted from the following two-line orbital elements,

1 10967U 78064A   16176.21738754 -.00000041  00000-0  28430-4 0  9993
2 10967 107.9999 271.5531 0001451 229.0007 131.1012 14.43556324994945
Epoch (UTC): 24 June 2016 05:13:02
Eccentricity: 0.0001451
inclination: 107.9999°
perigee height: 746 km
apogee height: 748 km
right ascension of ascending node: 271.5531°
argument of perigee: 229.0007°
revolutions per day: 14.43556324
mean anomaly at epoch: 131.1012°
orbit number at epoch: 99494

The dashed part of the orbit path shows where the satellite is in the earth's shadow,  

DLR